[[{"header":{"parameterUnit":"m.s-1","parameterCategory":1,"la1":30.2991,"la2":30.254,"lo1":-89.0895,"lo2":-89.0444,"dy":0.0017,"dx":0.0017,"nx":28,"ny":28,"refTime":"2024-06-17T09:00:00:Z","depth":0,"parameterNumber":2,"parameterNumberName":"U-component_of_WINDS"},"data":[0,0,0,0,0,0,0,0,0,0,0,0,0,0,0,0,0,0,0,0,0,0,0,0,0,0,0,0,0,0,0,0,0,0,0,0,0,0,0,0,0,0,0,0,0,0,0,0,0,0,0,0,0,0,0,0,0,0,-10.4501,-10.4501,0,-10.4506,-10.4506,-10.4506,-10.4317,-10.4312,-10.4307,-10.4302,-10.4305,-10.431,-10.4314,0,0,0,0,0,0,0,0,0,0,0,0,0,-10.4326,-10.433,-10.4501,-10.4501,-10.4501,-10.4506,-10.4506,-10.4506,-10.4318,-10.4312,-10.4306,-10.43,-10.4303,-10.4309,-10.4315,0,0,0,0,0,0,0,0,0,0,0,0,0,-10.4374,-10.4332,-10.4501,-10.4408,-10.44,-10.4506,-10.4506,-10.4506,-10.4319,-10.4312,-10.4304,-10.4297,-10.4302,-10.4308,-10.4315,-10.451,0,0,-10.4337,-10.434,0,0,0,0,0,0,0,0,-10.4371,-10.438,-10.4422,-10.4415,-10.4405,-10.4403,-10.4445,-10.4507,-10.4321,-10.435,-10.4302,-10.4293,-10.4344,-10.4347,-10.4364,-10.451,-10.451,-10.4338,-10.4342,-10.4345,-10.4347,0,0,0,0,0,0,0,-10.4368,-10.4379,-10.4503,-10.4422,-10.4413,-10.4365,-10.4364,-10.4456,-10.4389,-10.4347,-10.4333,-10.4336,-10.4338,-10.4358,-10.4363,-10.451,-10.4338,-10.4344,-10.4348,-10.4351,-10.4814,-10.4822,0,0,0,0,0,0,-10.4378,-10.4378,-10.4502,-10.4503,-10.437,-10.4374,-10.4373,-10.4411,-10.4387,-10.4376,-10.4343,-10.4327,-10.4349,-10.4355,-10.4362,-10.4585,-10.4345,-10.4352,-10.4356,-10.4806,-10.4816,-10.4824,0,0,0,0,0,0,-10.4375,-10.4391,-10.4502,-10.4437,-10.4447,-10.4385,-10.4431,-10.4416,-10.4435,-10.4384,-10.4371,-10.4376,-10.4343,-10.4352,-10.4474,-10.4583,-10.4355,-10.4361,-10.4797,-10.4809,-10.482,-10.5036,0,0,0,0,0,0,-10.4371,-10.4391,-10.4465,-10.444,-10.4451,-10.4616,-10.4437,-10.4421,-10.4448,-10.4428,-10.4412,-10.4401,-10.4338,-10.4465,-10.4481,-10.4589,-10.4367,-10.4786,-10.4802,-10.4816,-10.5019,-10.5054,-10.5084,0,0,0,0,0,-10.4365,-10.4525,-10.4469,-10.4486,-10.4542,-10.4622,-10.4629,-10.4553,-10.4458,-10.4531,-10.4498,-10.4402,-10.457,-10.4479,-10.4496,-10.4607,-10.4779,-10.4798,-10.4815,-10.5004,-10.5047,-10.5083,0,0,0,0,0,0,-10.4563,-10.452,-10.4458,-10.4615,-10.4624,-10.459,-10.4679,-10.4601,-10.4637,-10.4617,-10.4521,-10.4519,-10.4656,-10.4644,-10.4544,-10.4793,-10.4657,-10.468,-10.4795,-10.4835,-10.4867,-10.4865,-10.4373,0,0,0,0,0,-10.4626,-10.4695,-10.4653,-10.4796,-10.4803,-10.4742,-10.4774,-10.4715,-10.472,-10.4723,-10.4699,-10.4707,-10.4761,-10.4798,-10.4845,-10.5018,-10.501,-10.5103,-10.5136,-10.5163,-10.5181,-10.5269,-10.5309,-10.4884,-10.4884,-10.4883,0,0,-10.4754,-10.4739,-10.4788,-10.4835,-10.4835,-10.4907,-10.4746,-10.483,-10.4882,-10.4735,-10.4847,-10.4832,-10.4834,-10.4982,-10.5046,-10.4976,-10.5298,-10.5186,-10.5208,-10.5211,-10.5292,-10.5333,-10.5368,-10.4896,-10.4894,-10.4892,0,0,-10.5024,-10.5021,-10.5138,-10.5142,-10.5145,-10.5103,-10.5132,-10.5111,-10.5094,-10.5207,-10.5097,-10.5159,-10.5255,-10.526,-10.5276,-10.5551,-10.5463,-10.5569,-10.5738,-10.5825,-10.5858,-10.5887,-10.5982,-10.6017,-10.5589,-10.559,-10.559,0,-10.5182,-10.5288,-10.5208,-10.5299,-10.5321,-10.5194,-10.5311,-10.5318,-10.5337,-10.5355,-10.5278,-10.5395,-10.5388,-10.5534,-10.5601,-10.562,-10.5647,-10.5568,-10.586,-10.5888,-10.5914,-10.6003,-10.604,-10.5603,-10.5601,-10.56,-10.5599,0,-10.5481,-10.5556,-10.565,-10.5671,-10.5705,-10.5809,-10.5744,-10.5788,-10.5728,-10.5695,-10.581,-10.5798,-10.584,-10.5871,-10.5813,-10.601,-10.5966,-10.5877,-10.5737,-10.5969,-10.605,-10.6084,-10.5621,-10.5616,-10.5612,-10.5609,0,0,-10.5871,-10.5848,-10.5884,-10.5891,-10.5886,-10.5942,-10.6041,-10.6082,-10.612,-10.6139,-10.6216,-10.6302,-10.6219,-10.6237,-10.6179,-10.6256,-10.6471,-10.6156,-10.6155,-10.6212,-10.6683,-10.6747,-10.6787,-10.6415,-10.6421,-10.6426,-10.6681,0,-10.6129,-10.6295,-10.6227,-10.6398,-10.6465,-10.6347,-10.6432,-10.6438,-10.641,-10.6462,-10.6431,-10.6492,-10.638,-10.6389,-10.6461,-10.643,-10.6563,-10.6411,-10.6483,-10.6487,-10.6481,-10.6831,-10.6898,-10.7139,-10.6713,-10.6718,-10.6722,0,-10.6452,-10.6483,-10.6662,-10.6644,-10.667,-10.6748,-10.6779,-10.6832,-10.6837,-10.6811,-10.6833,-10.6757,-10.6851,-10.6717,-10.6844,-10.6742,-10.6769,-10.6758,-10.6766,-10.6765,-10.6615,-10.6835,-10.7215,-10.7249,-10.6773,-10.6769,-10.6765,0,-10.6713,-10.6801,-10.6918,-10.6929,-10.6913,-10.697,-10.6965,-10.6962,-10.6992,-10.7021,-10.7038,-10.7078,-10.7099,-10.7132,-10.7069,-10.6978,-10.7204,-10.7065,-10.7182,-10.7184,-10.7231,-10.7228,-10.7615,-10.7257,-10.7257,-10.7256,-10.7255,0,-10.7006,-10.7119,-10.7035,-10.7107,-10.723,-10.7151,-10.7274,-10.7257,-10.7256,-10.7321,-10.7223,-10.7287,-10.7202,-10.7258,-10.721,-10.7321,-10.7332,-10.7312,-10.7297,-10.7318,-10.732,-10.733,-10.731,-10.7265,-10.7263,-10.7261,-10.726,0,-10.7316,-10.7266,-10.7385,-10.7361,-10.7357,-10.7448,-10.7426,-10.7491,-10.7458,-10.7542,-10.7557,-10.7505,-10.7565,-10.7507,-10.7564,-10.7532,-10.7679,-10.7642,-10.7677,-10.7665,-10.7784,-10.7772,-10.8187,-10.8236,-10.7852,-10.7856,-10.7859,0,-10.7504,-10.7588,-10.7573,-10.761,-10.7612,-10.7674,-10.7703,-10.763,-10.7665,-10.7677,-10.774,-10.7792,-10.7829,-10.793,-10.7896,-10.7939,-10.79,-10.8043,-10.7905,-10.7923,-10.7897,-10.789,-10.7897,-10.8069,-10.8073,-10.8077,-10.808,0,-10.7841,-10.7812,-10.7858,-10.7898,-10.7936,-10.7963,-10.7982,-10.8018,-10.7943,-10.7987,-10.8047,-10.8076,-10.8135,-10.8187,-10.822,-10.8214,-10.8134,-10.8125,-10.8153,-10.8173,-10.8188,-10.8177,-10.7748,-10.8114,-10.8111,-10.8108,-10.8106,-10.8105,-10.8092,-10.816,-10.816,-10.8215,-10.8223,-10.8243,-10.8302,-10.8277,-10.8326,-10.8368,-10.8323,-10.8396,-10.8398,-10.8434,-10.8439,-10.8494,-10.8434,-10.8477,-10.8486,-10.8497,-10.8512,-10.8184,-10.8501,-10.85,-10.8499,-10.8498,-10.8497,0,-10.842,-10.8415,-10.8467,-10.8496,-10.854,-10.8465,-10.8482,-10.8523,-10.8589,-10.8598,-10.8637,-10.8706,-10.8757,-10.8729,-10.8772,-10.8822,-10.8786,-10.8835,-10.8828,-10.8827,-10.8566,-10.8534,-10.8863,-10.8863,-10.8863,-10.8863,-10.8863,-10.8862,-10.8595,-10.8705,-10.8677,-10.879,-10.8784,-10.8855,-10.8871,-10.8889,-10.8896,-10.8978,-10.9019,-10.9001,-10.8995,-10.9037,-10.908,-10.907,-10.9089,-10.915,-10.9127,-10.8882,-10.8846,-10.8811,-10.8781,-10.9156,-10.9156,-10.9383,-10.9385,-10.9387]},{"header":{"parameterUnit":"m.s-1","parameterCategory":1,"la1":30.2991,"la2":30.254,"lo1":-89.0895,"lo2":-89.0444,"dy":0.0017,"dx":0.0017,"nx":28,"ny":28,"refTime":"2024-06-17T09:00:00:Z","depth":0,"parameterNumber":3,"parameterNumberName":"V-component_of_WINDS"},"data":[0,0,0,0,0,0,0,0,0,0,0,0,0,0,0,0,0,0,0,0,0,0,0,0,0,0,0,0,0,0,0,0,0,0,0,0,0,0,0,0,0,0,0,0,0,0,0,0,0,0,0,0,0,0,0,0,0,0,1.6966,1.6966,0,1.6999,1.7,1.7,1.6991,1.699,1.6989,1.6989,1.7022,1.7024,1.7025,0,0,0,0,0,0,0,0,0,0,0,0,0,1.6893,1.6894,1.6965,1.6966,1.6966,1.6999,1.7,1.7,1.6991,1.699,1.6989,1.6988,1.7022,1.7024,1.7026,0,0,0,0,0,0,0,0,0,0,0,0,0,1.6925,1.6895,1.6965,1.6966,1.6966,1.6999,1.7,1.7,1.6991,1.699,1.6989,1.6988,1.7021,1.7024,1.7026,1.7061,0,0,1.7033,1.7034,0,0,0,0,0,0,0,0,1.6924,1.6928,1.6965,1.6966,1.6966,1.699,1.6987,1.7021,1.6991,1.6981,1.6989,1.6987,1.7012,1.7015,1.7024,1.7062,1.7064,1.7033,1.7035,1.7036,1.7036,0,0,0,0,0,0,0,1.6921,1.6927,1.6979,1.6966,1.6966,1.6964,1.6968,1.6993,1.7002,1.6982,1.6982,1.6986,1.7012,1.7022,1.7025,1.7064,1.7033,1.7035,1.7037,1.7038,1.7135,1.7137,0,0,0,0,0,0,1.6919,1.6925,1.6978,1.698,1.6942,1.6966,1.697,1.6983,1.7002,1.7004,1.6987,1.6985,1.7018,1.7022,1.7026,1.7069,1.7036,1.7038,1.7039,1.7134,1.7136,1.7137,0,0,0,0,0,0,1.6917,1.6924,1.6976,1.6952,1.6959,1.6969,1.6983,1.6984,1.6994,1.7005,1.7007,1.6994,1.7018,1.7023,1.7053,1.707,1.7039,1.7041,1.7133,1.7135,1.7136,1.7156,0,0,0,0,0,0,1.6915,1.6923,1.6936,1.6953,1.696,1.7003,1.6984,1.6986,1.6998,1.6996,1.7013,1.7015,1.7017,1.7049,1.7055,1.7073,1.7043,1.7131,1.7134,1.7136,1.7154,1.7158,1.7162,0,0,0,0,0,1.6913,1.694,1.6937,1.6943,1.6977,1.7004,1.7008,1.701,1.6999,1.7013,1.7021,1.7014,1.7067,1.7053,1.7059,1.7078,1.713,1.7133,1.7136,1.7152,1.7157,1.7162,0,0,0,0,0,0,1.6924,1.6942,1.6939,1.6972,1.6987,1.7002,1.7019,1.7016,1.7033,1.7031,1.7033,1.7037,1.7068,1.7076,1.7059,1.7114,1.7097,1.7101,1.7107,1.7113,1.7117,1.7114,1.7045,0,0,0,0,0,1.6931,1.6952,1.6966,1.6994,1.7001,1.7009,1.7021,1.7022,1.7036,1.7042,1.7052,1.7067,1.7087,1.71,1.7119,1.7155,1.7159,1.7171,1.7175,1.7178,1.7182,1.7203,1.7209,1.7146,1.7146,1.7146,0,0,1.6945,1.6957,1.6969,1.6996,1.7008,1.7029,1.7014,1.7037,1.7053,1.7046,1.7075,1.7083,1.71,1.7133,1.7148,1.7141,1.72,1.7182,1.7184,1.7186,1.7206,1.7212,1.7218,1.7148,1.7147,1.7147,0,0,1.6981,1.6991,1.7017,1.7029,1.7046,1.7052,1.7058,1.7074,1.708,1.7109,1.7105,1.7124,1.7158,1.7171,1.7182,1.7225,1.722,1.7231,1.7252,1.7272,1.7277,1.7282,1.7298,1.7304,1.7234,1.7234,1.7234,0,1.6995,1.7027,1.703,1.7054,1.7067,1.7062,1.7088,1.7099,1.7122,1.7131,1.7122,1.7166,1.7177,1.7214,1.7225,1.7233,1.7241,1.7229,1.7277,1.7281,1.7285,1.7301,1.7307,1.7235,1.7235,1.7235,1.7235,0,1.7045,1.7068,1.7086,1.7109,1.7124,1.7149,1.7156,1.717,1.717,1.7176,1.7208,1.7221,1.7243,1.7252,1.7251,1.7289,1.7284,1.7276,1.726,1.7292,1.7307,1.7313,1.7237,1.7237,1.7236,1.7236,0,0,1.7089,1.7114,1.7121,1.7132,1.7152,1.717,1.7195,1.7217,1.723,1.7247,1.7268,1.7298,1.7292,1.7304,1.7305,1.7323,1.7358,1.7313,1.7313,1.7321,1.7402,1.7408,1.7415,1.7355,1.7356,1.7357,1.7401,0,1.7127,1.7172,1.7176,1.7216,1.7237,1.7234,1.7256,1.7271,1.7278,1.7298,1.7305,1.7327,1.7316,1.7323,1.7341,1.735,1.7374,1.7347,1.7375,1.7376,1.7372,1.7423,1.7429,1.747,1.7406,1.7407,1.7408,0,1.7178,1.7197,1.7239,1.7258,1.7267,1.7287,1.7309,1.7327,1.7344,1.7348,1.7363,1.7363,1.7389,1.7372,1.7409,1.7391,1.7403,1.7409,1.7411,1.7414,1.7394,1.7428,1.7483,1.7489,1.7417,1.7416,1.7416,0,1.7207,1.7243,1.7273,1.7283,1.7305,1.7319,1.7329,1.7345,1.7359,1.7378,1.7387,1.7409,1.7421,1.7438,1.7444,1.743,1.7481,1.7464,1.7486,1.7486,1.7497,1.7496,1.7555,1.7504,1.7504,1.7503,1.7503,0,1.725,1.7276,1.7287,1.7306,1.7336,1.734,1.737,1.7379,1.7394,1.7415,1.7413,1.7432,1.7438,1.7459,1.7464,1.7495,1.75,1.7504,1.7505,1.7505,1.7504,1.7513,1.751,1.7505,1.7505,1.7504,1.7504,0,1.7287,1.7295,1.7328,1.7347,1.7352,1.7374,1.739,1.7408,1.7416,1.7442,1.7449,1.746,1.7485,1.7492,1.7522,1.7525,1.7561,1.7559,1.7556,1.7556,1.7578,1.7576,1.7645,1.7655,1.7596,1.7597,1.7597,0,1.7314,1.7334,1.7356,1.737,1.7381,1.7403,1.7418,1.7423,1.7439,1.7461,1.7477,1.7502,1.7522,1.7561,1.7572,1.7595,1.7594,1.7617,1.7598,1.7597,1.7596,1.7595,1.7597,1.7621,1.7621,1.7622,1.7622,0,1.7362,1.7365,1.7386,1.7409,1.7427,1.7445,1.7463,1.7474,1.7483,1.75,1.7526,1.7541,1.7572,1.7597,1.7621,1.7631,1.7629,1.7628,1.7635,1.7635,1.7632,1.7635,1.7566,1.7627,1.7626,1.7626,1.7626,1.7626,1.7395,1.7414,1.7432,1.7456,1.747,1.7487,1.7506,1.7516,1.7538,1.7564,1.7566,1.7594,1.7612,1.7644,1.7655,1.7678,1.7671,1.768,1.7682,1.7685,1.7687,1.7628,1.7682,1.7682,1.7682,1.7682,1.7681,0,1.7444,1.7456,1.7478,1.7503,1.7522,1.7519,1.7538,1.7555,1.758,1.7597,1.7617,1.7647,1.7672,1.7685,1.771,1.7725,1.7725,1.7732,1.7731,1.7733,1.7691,1.7684,1.7732,1.7732,1.7732,1.7732,1.7732,1.7732,1.7471,1.7503,1.7509,1.7548,1.756,1.7588,1.76,1.7616,1.763,1.7664,1.7684,1.7693,1.7709,1.7735,1.7758,1.7761,1.7771,1.7778,1.7781,1.7741,1.7736,1.7731,1.7724,1.778,1.778,1.7822,1.7822,1.7822]}]]